IW9GDC-13 Weather Reports


Display with metric or nautical units.
time (UTC)temp
F
wind
direction
speed
MPH
gust
MPH
rain 1hr
in
rain 24hr
in
rain mn
in
humidity
%
barometer
mb
20260831053036 84 293 5.0 9.0 0.00 0.00 0.00 62 1015.3
20260831052516 84 315 4.0 9.0 0.00 0.00 0.00 63 1015.3
20260831052056 83 270 6.0 14.0 0.00 0.00 0.00 62 1015.3
20260831051536 83 293 6.0 14.0 0.00 0.00 0.00 63 1015.2
20260831051016 83 270 7.0 18.0 0.00 0.00 0.00 65 1015.2
20260831050516 83 293 6.0 13.0 0.00 0.00 0.00 65 1015.3
20260831050016 83 293 6.0 12.0 0.00 0.00 0.00 64 1015.2
20260831045516 83 293 8.0 16.0 0.00 0.00 0.00 67 1015.2
20260831045036 83 270 6.0 12.0 0.00 0.00 0.00 68 1015.2
20260831044516 83 315 6.0 14.0 0.00 0.00 0.00 67 1015.2
20260831044016 83 293 8.0 18.0 0.00 0.00 0.00 67 1015.1
20260831043516 83 293 6.0 13.0 0.00 0.00 0.00 69 1015.1
20260831043056 83 293 6.0 16.0 0.00 0.00 0.00 68 1015.0
20260831042516 83 293 9.0 16.0 0.00 0.00 0.00 69 1015.1
20260831042016 83 338 9.0 22.0 0.00 0.00 0.00 69 1015.0
20260831041516 83 338 7.0 14.0 0.00 0.00 0.00 69 1015.0
20260831041016 83 315 8.0 18.0 0.00 0.00 0.00 69 1015.0
20260831040516 83 315 8.0 21.0 0.00 0.00 0.00 69 1015.0
20260831040016 83 293 8.0 19.0 0.00 0.00 0.00 69 1015.1
20260831035516 83 338 6.0 14.0 0.00 0.00 0.00 69 1015.1
20260831035016 83 293 6.0 11.0 0.00 0.00 0.00 69 1015.2
20260831034516 83 315 9.0 19.0 0.00 0.00 0.00 69 1015.2
20260831034015 83 315 7.0 15.0 0.00 0.00 0.00 69 1015.2
20260831033516 83 293 5.0 13.0 0.00 0.00 0.00 67 1015.2
20260831033016 83 293 3.0 8.0 0.00 0.00 0.00 68 1015.3
20260831032516 83 293 7.0 12.0 0.00 0.00 0.00 67 1015.4
20260831032015 83 315 7.0 10.0 0.00 0.00 0.00 67 1015.3
20260831031536 83 315 8.0 17.0 0.00 0.00 0.00 67 1015.5
20260831031016 83 293 8.0 11.0 0.00 0.00 0.00 67 1015.6
20260831030515 83 315 6.0 16.0 0.00 0.00 0.00 68 1015.6
20260831030036 83 270 7.0 13.0 0.00 0.00 0.00 68 1015.6
20260831025516 83 315 7.0 15.0 0.00 0.00 0.00 67 1015.6
20260831025016 83 270 5.0 11.0 0.00 0.00 0.00 67 1015.6
20260831024535 83 293 3.0 8.0 0.00 0.00 0.00 66 1015.7
20260831024015 83 270 4.0 9.0 0.00 0.00 0.00 66 1015.7
20260831023535 83 270 5.0 9.0 0.00 0.00 0.00 65 1015.8
20260831023036 83 270 4.0 8.0 0.00 0.00 0.00 66 1015.8
20260831022515 83 270 3.0 10.0 0.00 0.00 0.00 67 1015.8
20260831022016 84 315 4.0 8.0 0.00 0.00 0.00 67 1015.8
20260831021516 84 270 5.0 9.0 0.00 0.00 0.00 66 1015.7
20260831021016 84 315 5.0 13.0 0.00 0.00 0.00 65 1015.7
20260831020515 84 293 4.0 10.0 0.00 0.00 0.00 63 1015.6
20260831020035 84 315 11.0 19.0 0.00 0.00 0.00 63 1015.7
20260831015516 84 270 7.0 17.0 0.00 0.00 0.00 66 1015.7
20260831015015 84 248 5.0 13.0 0.00 0.00 0.00 66 1015.7
20260831014515 84 270 9.0 16.0 0.00 0.00 0.00 66 1015.7
20260831014015 84 293 9.0 15.0 0.00 0.00 0.00 67 1015.7
20260831013515 84 270 8.0 14.0 0.00 0.00 0.00 67 1015.7
20260831013016 84 315 8.0 17.0 0.00 0.00 0.00 66 1015.6
20260831012516 84 293 5.0 11.0 0.00 0.00 0.00 66 1015.7
20260831012015 84 293 7.0 16.0 0.00 0.00 0.00 67 1015.6
20260831011515 84 293 8.0 17.0 0.00 0.00 0.00 66 1015.5
20260831011015 84 315 9.0 19.0 0.00 0.00 0.00 65 1015.4
20260831010515 84 270 9.0 17.0 0.00 0.00 0.00 59 1015.4
20260831010015 85 270 9.0 17.0 0.00 0.00 0.00 60 1015.5
20260831005515 85 270 9.0 17.0 0.00 0.00 0.00 57 1015.5
20260831005017 85 270 12.0 29.0 0.00 0.00 0.00 56 1015.4
20260831004517 85 270 11.0 24.0 0.00 0.00 0.00 59 1015.6
20260831004017 85 270 11.0 21.0 0.00 0.00 0.00 58 1015.7
20260831003517 85 270 13.0 25.0 0.00 0.00 0.00 60 1015.7
20260831003038 85 293 10.0 17.0 0.00 0.00 0.00 61 1015.6
20260831002537 85 315 11.0 21.0 0.00 0.00 0.00 58 1015.7
20260831002017 85 315 11.0 19.0 0.00 0.00 0.00 57 1015.7
20260831001517 85 315 9.0 19.0 0.00 0.00 0.00 58 1015.7
20260831001017 85 270 10.0 23.0 0.00 0.00 0.00 60 1015.8
20260831000517 85 270 11.0 18.0 0.00 0.00 0.00 61 1015.9
20260831000017 85 270 10.0 20.0 0.00 0.00 0.00 62 1015.8
20260830235517 85 270 6.0 18.0 0.00 0.00 0.00 62 1015.8
20260830235037 85 315 7.0 17.0 0.00 0.00 0.00 63 1015.7
20260830234537 85 315 7.0 18.0 0.00 0.00 0.00 62 1015.7
20260830234017 85 315 7.0 15.0 0.00 0.00 0.00 62 1015.7
20260830233537 85 293 8.0 15.0 0.00 0.00 0.00 61 1015.8
20260830233017 85 315 9.0 18.0 0.00 0.00 0.00 62 1015.7
20260830232517 85 270 6.0 16.0 0.00 0.00 0.00 62 1015.6
20260830232017 85 270 6.0 11.0 0.00 0.00 0.00 64 1015.7
20260830231517 86 293 7.0 21.0 0.00 0.00 0.00 64 1015.7
20260830231017 86 338 7.0 15.0 0.00 0.00 0.00 65 1015.6
20260830230517 86 338 7.0 16.0 0.00 0.00 0.00 64 1015.6
20260830230017 86 270 8.0 18.0 0.00 0.00 0.00 68 1015.6
20260830225517 86 315 7.0 17.0 0.00 0.00 0.00 68 1015.6
20260830225017 86 338 7.0 14.0 0.00 0.00 0.00 69 1015.5
20260830224517 86 315 5.0 13.0 0.00 0.00 0.00 69 1015.5
20260830224017 86 315 7.0 15.0 0.00 0.00 0.00 70 1015.6
20260830223517 86 315 7.0 15.0 0.00 0.00 0.00 70 1015.5
20260830223037 86 315 6.0 17.0 0.00 0.00 0.00 70 1015.6
20260830222517 86 315 7.0 17.0 0.00 0.00 0.00 70 1015.5
20260830222017 86 315 2.0 6.0 0.00 0.00 0.00 70 1015.5
20260830221517 86 315 4.0 10.0 0.00 0.00 0.00 70 1015.7
20260830221017 86 338 5.0 12.0 0.00 0.00 0.00 71 1015.7
20260830220517 86 315 2.0 8.0 0.00 0.00 0.00 70 1015.5
20260830220017 86 338 4.0 9.0 0.00 0.00 0.00 70 1015.5
20260830215517 86 315 3.0 7.0 0.00 0.00 0.00 69 1015.5
20260830215017 86 338 4.0 9.0 0.00 0.00 0.00 68 1015.5
20260830214517 86 23 5.0 13.0 0.00 0.00 0.00 68 1015.5
20260830214036 86 0 4.0 10.0 0.00 0.00 0.00 67 1015.5
20260830213536 86 315 8.0 14.0 0.00 0.00 0.00 67 1015.6
20260830213017 86 315 5.0 14.0 0.00 0.00 0.00 67 1015.7
20260830212517 86 0 4.0 12.0 0.00 0.00 0.00 68 1015.7
20260830212016 86 0 5.0 11.0 0.00 0.00 0.00 69 1015.8
20260830211516 86 315 3.0 8.0 0.00 0.00 0.00 69 1015.8
20260830211017 86 68 1.0 4.0 0.00 0.00 0.00 72 1015.9
20260830210517 86 45 2.0 6.0 0.00 0.00 0.00 72 1015.9
20260830210016 86 338 5.0 13.0 0.00 0.00 0.00 68 1015.9
20260830205516 86 23 3.0 7.0 0.00 0.00 0.00 69 1015.7
20260830205017 86 338 4.0 9.0 0.00 0.00 0.00 69 1015.7
20260830204516 86 338 4.0 12.0 0.00 0.00 0.00 69 1015.6
20260830204016 86 338 3.0 8.0 0.00 0.00 0.00 69 1015.7
20260830203516 86 338 4.0 8.0 0.00 0.00 0.00 70 1015.7
20260830203016 86 293 4.0 8.0 0.00 0.00 0.00 72 1015.6
20260830202516 86 338 6.0 14.0 0.00 0.00 0.00 73 1015.5
20260830202036 85 68 5.0 11.0 0.00 0.00 0.00 78 1015.4
20260830201516 86 90 5.0 11.0 0.00 0.00 0.00 78 1015.4
20260830201056 86 315 7.0 13.0 0.00 0.00 0.00 77 1015.4
20260830200516 86 113 2.0 13.0 0.00 0.00 0.00 76 1015.3
20260830200016 86 293 2.0 8.0 0.00 0.00 0.00 73 1015.4
20260830195518 86 68 2.0 8.0 0.00 0.00 0.00 74 1015.3
20260830195116 87 315 2.0 7.0 0.00 0.00 0.00 73 1015.3
20260830194016 86 0 3.0 8.0 0.00 0.00 0.00 73 1015.3
20260830193516 86 338 3.0 8.0 0.00 0.00 0.00 75 1015.2
20260830193016 86 23 5.0 15.0 0.00 0.00 0.00 74 1015.3
20260830192516 86 68 2.0 8.0 0.00 0.00 0.00 76 1015.3
20260830192016 86 0 3.0 7.0 0.00 0.00 0.00 76 1015.3
20260830191516 86 338 3.0 7.0 0.00 0.00 0.00 76 1015.3
20260830191017 86 23 6.0 14.0 0.00 0.00 0.00 76 1015.3
20260830190516 86 90 3.0 8.0 0.00 0.00 0.00 75 1015.3
20260830190016 86 0 3.0 8.0 0.00 0.00 0.00 74 1015.3
20260830185516 87 315 3.0 7.0 0.00 0.00 0.00 73 1015.2
20260830185016 87 338 5.0 11.0 0.00 0.00 0.00 70 1015.3
20260830184516 87 338 3.0 9.0 0.00 0.00 0.00 69 1015.2
20260830184036 87 0 5.0 13.0 0.00 0.00 0.00 70 1015.3
20260830183516 87 338 1.0 4.0 0.00 0.00 0.00 69 1015.3
20260830183016 87 23 2.0 9.0 0.00 0.00 0.00 68 1015.1
20260830182516 87 338 5.0 12.0 0.00 0.00 0.00 68 1015.2
20260830182016 87 270 3.0 6.0 0.00 0.00 0.00 71 1015.0
20260830181516 87 68 3.0 6.0 0.00 0.00 0.00 68 1015.2
20260830181036 87 90 4.0 11.0 0.00 0.00 0.00 68 1014.8
20260830180516 88 293 6.0 15.0 0.00 0.00 0.00 68 1014.8
20260830180016 88 315 4.0 11.0 0.00 0.00 0.00 67 1014.7
20260830175518 88 293 7.0 16.0 0.00 0.00 0.00 67 1014.7
20260830175016 88 293 7.0 19.0 0.00 0.00 0.00 67 1014.4
20260830174516 88 248 6.0 14.0 0.00 0.00 0.00 66 1014.4
20260830174016 88 23 5.0 13.0 0.00 0.00 0.00 66 1014.4
20260830173518 88 0 4.0 15.0 0.00 0.00 0.00 66 1014.4
20260830173016 88 23 4.0 9.0 0.00 0.00 0.00 65 1014.3
20260830172516 88 45 7.0 17.0 0.00 0.00 0.00 65 1014.3
20260830172016 89 23 5.0 15.0 0.00 0.00 0.00 60 1014.2
20260830171516 89 23 3.0 9.0 0.00 0.00 0.00 60 1014.1
20260830171016 89 270 9.0 17.0 0.00 0.00 0.00 60 1013.8
20260830170516 90 0 10.0 15.0 0.00 0.00 0.00 60 1014.0
20260830170016 91 45 4.0 9.0 0.00 0.00 0.00 60 1014.1
20260830165516 91 338 10.0 20.0 0.00 0.00 0.00 59 1014.0
20260830165016 91 180 2.0 5.0 0.00 0.00 0.00 57 1014.0
20260830164516 91 338 4.0 19.0 0.00 0.00 0.00 57 1014.1
20260830164016 92 315 9.0 19.0 0.00 0.00 0.00 55 1014.1
20260830163516 93 225 3.0 4.0 0.00 0.00 0.00 54 1014.1
20260830163036 93 0 1.0 5.0 0.00 0.00 0.00 54 1014.0
20260830162536 93 338 3.0 7.0 0.00 0.00 0.00 53 1013.9
20260830162016 93 293 2.0 7.0 0.00 0.00 0.00 54 1013.9
20260830161516 93 113 1.0 4.0 0.00 0.00 0.00 50 1013.9
20260830161016 93 180 1.0 2.0 0.00 0.00 0.00 50 1014.0
20260830160515 92 203 1.0 2.0 0.00 0.00 0.00 51 1013.9
20260830160015 92 135 1.0 2.0 0.00 0.00 0.00 52 1013.9
20260830155516 92 135 1.0 3.0 0.00 0.00 0.00 53 1013.8
20260830155016 92 158 2.0 6.0 0.00 0.00 0.00 53 1013.9
20260830154516 92 158 1.0 2.0 0.00 0.00 0.00 52 1013.8
20260830154036 92 158 1.0 3.0 0.00 0.00 0.00 53 1013.9
20260830153515 92 135 2.0 4.0 0.00 0.00 0.00 54 1013.9
20260830153016 92 158 2.0 4.0 0.00 0.00 0.00 54 1013.9
20260830152515 92 158 2.0 4.0 0.00 0.00 0.00 55 1014.0
20260830152016 92 135 1.0 4.0 0.00 0.00 0.00 59 1014.0
20260830151516 91 90 1.0 4.0 0.00 0.00 0.00 59 1014.1
20260830151016 91 135 4.0 8.0 0.00 0.00 0.00 54 1014.0
20260830150516 91 113 3.0 7.0 0.00 0.00 0.00 65 1014.1
20260830150015 91 113 3.0 7.0 0.00 0.00 0.00 66 1014.1
20260830145516 91 113 4.0 8.0 0.00 0.00 0.00 65 1014.3
20260830145015 91 90 6.0 9.0 0.00 0.00 0.00 59 1014.3
20260830144515 91 113 6.0 9.0 0.00 0.00 0.00 58 1014.0
20260830144015 92 135 7.0 9.0 0.00 0.00 0.00 50 1014.0
20260830143515 92 113 6.0 10.0 0.00 0.00 0.00 50 1014.2
20260830143015 92 113 6.0 10.0 0.00 0.00 0.00 51 1014.1
20260830142515 92 135 4.0 8.0 0.00 0.00 0.00 52 1014.2
20260830142015 92 113 6.0 9.0 0.00 0.00 0.00 54 1014.2
20260830141517 93 113 6.0 9.0 0.00 0.00 0.00 50 1014.2
20260830141018 94 113 8.0 11.0 0.00 0.00 0.00 41 1014.2
20260830140517 95 113 7.0 10.0 0.00 0.00 0.00 37 1014.2
20260830140037 96 90 4.0 8.0 0.00 0.00 0.00 34 1014.2
20260830135517 96 113 7.0 13.0 0.00 0.00 0.00 34 1014.1
20260830135017 97 113 8.0 12.0 0.00 0.00 0.00 31 1014.2
20260830134517 98 113 6.0 10.0 0.00 0.00 0.00 30 1014.1
20260830134017 98 113 5.0 8.0 0.00 0.00 0.00 27 1014.0
20260830133517 98 135 5.0 8.0 0.00 0.00 0.00 28 1014.1
20260830133017 98 135 6.0 9.0 0.00 0.00 0.00 28 1014.1
20260830132517 98 113 6.0 9.0 0.00 0.00 0.00 29 1014.2
20260830132017 97 135 8.0 11.0 0.00 0.00 0.00 28 1014.3
20260830131537 97 113 8.0 12.0 0.00 0.00 0.00 30 1014.3
20260830131019 98 113 7.0 11.0 0.00 0.00 0.00 31 1014.3
20260830130537 97 113 8.0 11.0 0.00 0.00 0.00 32 1014.4
20260830130019 97 113 5.0 10.0 0.00 0.00 0.00 31 1014.3
20260830125517 97 113 5.0 9.0 0.00 0.00 0.00 32 1014.4
20260830125037 96 113 7.0 10.0 0.00 0.00 0.00 34 1014.4
20260830124537 96 113 7.0 10.0 0.00 0.00 0.00 35 1014.6
20260830124017 96 113 7.0 11.0 0.00 0.00 0.00 35 1014.6
20260830123517 96 113 6.0 10.0 0.00 0.00 0.00 35 1014.6
20260830123017 96 113 7.0 11.0 0.00 0.00 0.00 34 1014.8
20260830122517 96 113 7.0 11.0 0.00 0.00 0.00 33 1014.8
20260830122017 96 113 10.0 12.0 0.00 0.00 0.00 32 1014.8
20260830121517 96 113 7.0 10.0 0.00 0.00 0.00 32 1014.9
20260830121017 97 113 8.0 11.0 0.00 0.00 0.00 33 1014.9
20260830120517 97 113 7.0 10.0 0.00 0.00 0.00 31 1015.0
20260830120019 97 113 7.0 11.0 0.00 0.00 0.00 30 1015.0
20260830115517 97 113 5.0 9.0 0.00 0.00 0.00 29 1015.0
20260830115017 97 113 7.0 11.0 0.00 0.00 0.00 30 1015.1
20260830114517 97 135 9.0 12.0 0.00 0.00 0.00 28 1015.0
20260830114017 98 113 8.0 12.0 0.00 0.00 0.00 28 1015.3
20260830113517 98 113 7.0 12.0 0.00 0.00 0.00 27 1015.3
20260830113019 98 113 6.0 9.0 0.00 0.00 0.00 28 1015.3
20260830112517 98 113 6.0 10.0 0.00 0.00 0.00 27 1015.2
20260830112017 98 113 7.0 11.0 0.00 0.00 0.00 27 1015.3
20260830111517 98 113 7.0 9.0 0.00 0.00 0.00 27 1015.5
20260830111037 97 135 5.0 10.0 0.00 0.00 0.00 28 1015.5
20260830110517 97 135 8.0 11.0 0.00 0.00 0.00 28 1015.5
20260830110019 97 135 6.0 10.0 0.00 0.00 0.00 28 1015.5
20260830105537 97 135 8.0 12.0 0.00 0.00 0.00 28 1015.7
20260830105017 97 135 7.0 11.0 0.00 0.00 0.00 27 1015.5
20260830104537 97 135 8.0 13.0 0.00 0.00 0.00 28 1015.5
20260830104017 96 113 8.0 13.0 0.00 0.00 0.00 27 1015.5
20260830103537 96 135 10.0 14.0 0.00 0.00 0.00 26 1015.6
20260830103036 96 135 9.0 13.0 0.00 0.00 0.00 29 1015.5
20260830102517 96 135 10.0 14.0 0.00 0.00 0.00 28 1015.6
20260830102016 97 135 9.0 14.0 0.00 0.00 0.00 27 1015.5
20260830101517 97 135 8.0 13.0 0.00 0.00 0.00 26 1015.4
20260830101017 98 135 9.0 15.0 0.00 0.00 0.00 27 1015.5
20260830100537 98 135 8.0 12.0 0.00 0.00 0.00 26 1015.6
20260830100016 98 135 9.0 13.0 0.00 0.00 0.00 26 1015.7
20260830095516 98 113 8.0 13.0 0.00 0.00 0.00 27 1015.6
20260830095017 97 113 8.0 12.0 0.00 0.00 0.00 28 1015.6
20260830094516 97 113 8.0 13.0 0.00 0.00 0.00 28 1015.6
20260830094037 97 113 8.0 13.0 0.00 0.00 0.00 27 1015.5
20260830093516 97 113 10.0 13.0 0.00 0.00 0.00 28 1015.6
20260830093016 96 113 8.0 11.0 0.00 0.00 0.00 29 1015.5
20260830092516 95 113 6.0 9.0 0.00 0.00 0.00 31 1015.7
20260830092017 94 113 3.0 6.0 0.00 0.00 0.00 37 1015.7
20260830091516 93 113 3.0 6.0 0.00 0.00 0.00 41 1015.7
20260830091016 93 113 2.0 5.0 0.00 0.00 0.00 43 1015.6
20260830090516 93 135 4.0 7.0 0.00 0.00 0.00 41 1015.6
20260830090016 94 113 5.0 8.0 0.00 0.00 0.00 39 1015.5
20260830085517 94 113 5.0 8.0 0.00 0.00 0.00 36 1015.6
20260830085017 94 113 6.0 10.0 0.00 0.00 0.00 37 1015.6
20260830084516 94 113 6.0 12.0 0.00 0.00 0.00 35 1015.5
20260830084036 93 113 6.0 10.0 0.00 0.00 0.00 39 1015.5
20260830083536 93 113 5.0 9.0 0.00 0.00 0.00 41 1015.5
20260830083037 93 113 3.0 8.0 0.00 0.00 0.00 41 1015.5
20260830082517 92 135 4.0 8.0 0.00 0.00 0.00 41 1015.4
20260830082057 92 113 4.0 7.0 0.00 0.00 0.00 41 1015.3
20260830081516 92 113 4.0 7.0 0.00 0.00 0.00 42 1015.3
20260830081016 92 113 4.0 9.0 0.00 0.00 0.00 41 1015.3
20260830080516 92 113 5.0 8.0 0.00 0.00 0.00 39 1015.2
20260830080016 92 113 4.0 8.0 0.00 0.00 0.00 39 1015.2
20260830075516 92 113 3.0 6.0 0.00 0.00 0.00 39 1015.2
20260830075016 92 113 4.0 7.0 0.00 0.00 0.00 38 1015.1
20260830074516 92 113 3.0 5.0 0.00 0.00 0.00 37 1015.1
20260830074016 92 113 2.0 4.0 0.00 0.00 0.00 37 1015.1
20260830073516 92 113 2.0 4.0 0.00 0.00 0.00 36 1015.1
20260830073016 93 135 1.0 3.0 0.00 0.00 0.00 35 1015.0
20260830072536 92 0.0 2.0 0.00 0.00 0.00 37 1015.0
20260830072016 91 135 1.0 3.0 0.00 0.00 0.00 37 1015.1
20260830071516 91 135 1.0 3.0 0.00 0.00 0.00 42 1015.0
20260830071016 90 135 2.0 3.0 0.00 0.00 0.00 44 1015.1
20260830070516 91 113 2.0 3.0 0.00 0.00 0.00 47 1015.2
20260830070016 91 113 2.0 3.0 0.00 0.00 0.00 46 1015.2
20260830065516 91 0.0 1.0 0.00 0.00 0.00 42 1015.2
20260830065016 90 0.0 2.0 0.00 0.00 0.00 42 1015.2
20260830064516 89 0.0 2.0 0.00 0.00 0.00 43 1015.2
20260830064016 89 0.0 1.0 0.00 0.00 0.00 45 1015.3
20260830063516 89 0.0 0.0 0.00 0.00 0.00 46 1015.3
20260830063016 88 0.0 2.0 0.00 0.00 0.00 46 1015.1
20260830062516 88 0.0 0.0 0.00 0.00 0.00 47 1015.1
20260830062016 88 135 1.0 2.0 0.00 0.00 0.00 46 1015.1
20260830061516 89 113 1.0 2.0 0.00 0.00 0.00 44 1014.9
20260830061036 90 0.0 1.0 0.00 0.00 0.00 38 1015.1
20260830060516 90 0.0 2.0 0.00 0.00 0.00 34 1015.1
20260830060016 91 0.0 2.0 0.00 0.00 0.00 34 1014.9
20260830055516 92 270 2.0 3.0 0.00 0.00 0.00 34 1014.8
20260830055016 92 270 2.0 3.0 0.00 0.00 0.00 29 1014.9
20260830054556 92 293 2.0 3.0 0.00 0.00 0.00 29 1014.9
20260830054016 92 270 2.0 4.0 0.00 0.00 0.00 29 1014.9
20260830053516 92 270 3.0 4.0 0.00 0.00 0.00 29 1014.9